Weather History for The Dalles, OR

Change the Weather History Date:

Sunday, April 13, 2014

  Actual Average Record
Temperature  
Mean Temperature 54 °F -  
Max Temperature 70 °F 64 °F 82 °F (1951)
Min Temperature 39 °F 39 °F 27 °F (1981)
Degree Days  
Heating Degree Days 11    
Growing Degree Days 4 (Base 50)    
Moisture  
Dew Point 31 °F    
Average Humidity 49    
Maximum Humidity 89    
Minimum Humidity 18    
Precipitation  
Precipitation 0.00 in - - ()
Sea Level Pressure  
Sea Level Pressure 30.27 in    
Wind  
Wind Speed 6 mph (East)    
Max Wind Speed 14 mph    
Max Gust Speed 21 mph    
Visibility 10 miles    
Events      
Averages and records for this station are not official NWS values.
T = Trace of Precipitation, MM = Missing Value Source: NWS Daily Summary

Daily Weather History Graph

Daily Weather History Graph

Search for Another Location

Airport:

Trip Planner

Search our weather history database for the weather conditions in past years. The results will help you decide how hot, cold, wet, or windy it might be!

Date:

Astronomy

Apr. 13, 2014 Rise Set
Actual Time 6:22 AM PDT 7:48 PM PDT
Civil Twilight 5:51 AM PDT 8:19 PM PDT
Nautical Twilight 5:14 AM PDT 8:57 PM PDT
Astronomical Twilight 4:34 AM PDT 9:37 PM PDT
Moon 6:28 PM PDT (4/13) 5:28 AM PDT (4/13)
Length of Visible Light 14h 28m
Length of Day
13h 26m
Waxing Gibbous, 97% of the Moon is Illuminated
Apr 13
Waxing Gibbous
Apr 15
Full
Apr 22
Last Quarter
Apr 28
New
May 6
First Quarter

Hourly Weather History & Observations

Time (PDT) Temp. Windchill Dew Point Humidity Pressure Visibility Wind Dir Wind Speed Gust Speed Precip Events Conditions
12:53 AM 52.0 °F - 39.0 °F 61% 30.16 in 10.0 mi West 6.9 mph - N/A   Clear
1:53 AM 48.9 °F - 39.9 °F 71% 30.18 in 10.0 mi NW 11.5 mph - N/A   Clear
2:53 AM 46.9 °F - 39.0 °F 74% 30.21 in 10.0 mi NNW 8.1 mph - N/A   Clear
3:53 AM 46.0 °F - 39.0 °F 76% 30.22 in 10.0 mi Calm Calm - N/A   Clear
4:53 AM 42.1 °F 39.2 °F 37.0 °F 82% 30.24 in 10.0 mi WNW 4.6 mph - N/A   Clear
5:53 AM 39.9 °F 37.8 °F 37.0 °F 89% 30.26 in 10.0 mi SW 3.5 mph - N/A   Clear
6:53 AM 39.0 °F 36.8 °F 34.0 °F 82% 30.29 in 10.0 mi NE 3.5 mph - N/A   Clear
7:53 AM 44.1 °F 42.5 °F 37.9 °F 79% 30.32 in 10.0 mi ENE 3.5 mph - N/A   Clear
8:53 AM 48.0 °F - 37.9 °F 68% 30.33 in 10.0 mi Calm Calm - N/A   Clear
9:53 AM 53.1 °F - 37.0 °F 55% 30.34 in 10.0 mi Calm Calm - N/A   Clear
10:53 AM 59.0 °F - 34.0 °F 39% 30.34 in 10.0 mi Calm Calm - N/A   Clear
11:53 AM 64.0 °F - 28.0 °F 26% 30.32 in 10.0 mi ENE 9.2 mph 20.7 mph N/A   Clear
12:53 PM 66.9 °F - 28.0 °F 23% 30.32 in 10.0 mi East 12.7 mph 18.4 mph N/A   Clear
1:53 PM 68.0 °F - 28.0 °F 22% 30.31 in 10.0 mi ESE 13.8 mph 18.4 mph N/A   Clear
2:53 PM 69.1 °F - 26.1 °F 20% 30.30 in 10.0 mi ESE 11.5 mph 17.3 mph N/A   Clear
3:53 PM 69.1 °F - 24.1 °F 18% 30.28 in 10.0 mi East 10.4 mph - N/A   Clear
5:53 PM 66.9 °F - 21.9 °F 18% 30.26 in 10.0 mi ESE 9.2 mph 18.4 mph N/A   Clear
6:53 PM 64.0 °F - 21.0 °F 19% 30.25 in 10.0 mi ESE 10.4 mph - N/A   Clear
7:53 PM 55.9 °F - 24.1 °F 29% 30.25 in 10.0 mi ESE 5.8 mph - N/A   Clear
8:53 PM 53.1 °F - 24.1 °F 32% 30.27 in 10.0 mi ESE 4.6 mph - N/A   Clear
9:53 PM 48.0 °F - 25.0 °F 41% 30.27 in 10.0 mi Calm Calm - N/A   Clear
10:53 PM 48.0 °F - 24.1 °F 39% 30.27 in 10.0 mi Calm Calm - N/A   Clear
11:53 PM 41.0 °F 37.1 °F 26.1 °F 55% 30.27 in 10.0 mi ESE 5.8 mph - N/A   Clear